Weather History for KBWG - April, 2012

Change the Weather History Date:

Wednesday, April 4, 2012

  Actual Average Record
Temperature  
Mean Temperature 73 °F 54 °F  
Max Temperature 83 °F 66 °F 86 °F (1934)
Min Temperature 62 °F 42 °F 26 °F (1904)
Degree Days  
Heating Degree Days 0 11  
Month to date heating degree days 0 47  
Since 1 July heating degree days 2782 3765  
Cooling Degree Days 8 1  
Month to date cooling degree days 30 3  
Year to date cooling degree days 88 8  
Growing Degree Days 22 (Base 50)    
Moisture  
Dew Point 60 °F    
Average Humidity 68    
Maximum Humidity 93    
Minimum Humidity 42    
Precipitation  
Precipitation 0.14 in 0.13 in 4.61 in (1968)
Month to date precipitation 0.15 0.53  
Year to date precipitation 10.67 12.51  
Snow  
Snow 0.00 in 0.10 in T in (1920)
Month to date snowfall 0.0 0.1  
Since 1 July snowfall 1.4 9.0  
Snow Depth 0.00 in    
Sea Level Pressure  
Sea Level Pressure 29.78 in    
Wind  
Wind Speed 5 mph (SW)    
Max Wind Speed 22 mph    
Max Gust Speed 31 mph    
Visibility 10 miles    
Events Rain , Thunderstorm    
T = Trace of Precipitation, MM = Missing Value Source: NWS Daily Summary

Daily Weather History Graph

Daily Weather History Graph

Search for Another Location

Airport or City:

Trip Planner

Search our weather history database for the weather conditions in past years. The results will help you decide how hot, cold, wet, or windy it might be!

Date:

Astronomy

Apr. 04, 2012 Rise Set
Actual Time 6:26 AM CDT 7:11 PM CDT
Civil Twilight 6:00 AM CDT 7:37 PM CDT
Nautical Twilight 5:29 AM CDT 8:08 PM CDT
Astronomical Twilight 4:57 AM CDT 8:40 PM CDT
Moon 5:06 PM CDT (4/4) 4:44 AM CDT (4/4)
Length of Visible Light 13h 37m
Length of Day
12h 44m
Waxing Gibbous, 94% of the Moon is Illuminated
Apr 4
Waxing Gibbous
Apr 6
Full
Apr 13
Last Quarter
Apr 21
New
Apr 29
First Quarter

Hourly Weather History & Observations

Time (CDT) Temp. Heat Index Dew Point Humidity Pressure Visibility Wind Dir Wind Speed Gust Speed Precip Events Conditions
12:53 AM 68.0 °F - 61.0 °F 78% 29.85 in 10.0 mi Calm Calm - N/A   Overcast
1:53 AM 70.0 °F - 61.0 °F 73% 29.84 in 9.0 mi South 5.8 mph - 0.00 in Rain Light Rain
2:05 AM 69.8 °F - 60.8 °F 73% 29.85 in 4.0 mi SW 19.6 mph 29.9 mph 0.04 in Rain , Thunderstorm Thunderstorms and Rain
2:38 AM 66.2 °F - 62.6 °F 88% 29.85 in 10.0 mi Calm Calm - 0.14 in   Mostly Cloudy
2:53 AM 66.0 °F - 62.1 °F 87% 29.83 in 10.0 mi Calm Calm - 0.14 in   Mostly Cloudy
4:53 AM 64.9 °F - 61.0 °F 87% 29.83 in 10.0 mi Calm Calm - N/A   Clear
5:53 AM 63.0 °F - 60.1 °F 90% 29.82 in 10.0 mi South 5.8 mph - N/A   Clear
6:53 AM 63.0 °F - 59.0 °F 87% 29.82 in 7.0 mi South 3.5 mph - N/A   Clear
8:53 AM 69.1 °F - 61.0 °F 75% 29.84 in 10.0 mi WSW 4.6 mph - N/A   Clear
9:53 AM 72.0 °F - 62.1 °F 71% 29.84 in 10.0 mi SW 6.9 mph - N/A   Clear
10:53 AM 75.0 °F - 59.0 °F 57% 29.83 in 10.0 mi WSW 4.6 mph - N/A   Clear
11:53 AM 78.1 °F - 57.9 °F 50% 29.81 in 10.0 mi West 4.6 mph - N/A   Clear
12:53 PM 80.1 °F 80.6 °F 57.9 °F 47% 29.78 in 10.0 mi Variable 3.5 mph - N/A   Clear
1:53 PM 80.1 °F 80.7 °F 59.0 °F 48% 29.75 in 10.0 mi West 10.4 mph 16.1 mph N/A   Scattered Clouds
2:53 PM 81.0 °F 81.1 °F 57.9 °F 45% 29.72 in 10.0 mi West 5.8 mph - N/A   Partly Cloudy
3:53 PM 80.1 °F 80.2 °F 55.9 °F 43% 29.71 in 10.0 mi WSW 9.2 mph - N/A   Partly Cloudy
5:53 PM 78.1 °F - 57.0 °F 48% 29.69 in 10.0 mi WSW 6.9 mph - N/A   Overcast
7:53 PM 75.0 °F - 57.0 °F 53% 29.70 in 10.0 mi Calm Calm - N/A   Mostly Cloudy
8:53 PM 73.9 °F - 59.0 °F 59% 29.72 in 10.0 mi Calm Calm - N/A   Overcast
9:53 PM 70.0 °F - 60.1 °F 71% 29.72 in 10.0 mi NE 11.5 mph - N/A   Overcast
10:53 PM 68.0 °F - 60.1 °F 76% 29.72 in 10.0 mi ENE 6.9 mph - 0.00 in   Overcast
11:53 PM 66.9 °F - 60.1 °F 79% 29.72 in 10.0 mi ENE 8.1 mph - N/A   Overcast